Location: Munkebjergskolens Observatorium
(55.3864°N, 10.3987°E)
Time: 17:21:40
(UTC+02:00)

NOAA 18 - Pass Details

Date: 23 March 2023
Orbit: 838 x 860 km, 98.9° (Epoch: 02 June)

Event Time Altitude Azimuth Distance (km) Brightness Sun altitude
Exits shadow 00:11:45 10° 277° (W) 2,482 7.7 -33.7°
Maximum altitude 00:12:08 10° 281° (W) 2,478 7.7 -33.7°
Drops below altitude 10° 00:13:00 10° 290° (WNW) 2,505 7.9 -33.7°
Sets 00:18:08 0° 331° (NNW) 3,452 9.2 -33.8°
